| time (UTC) | temp F | wind direction | speed MPH | gust MPH | rain 1hr in | rain 24hr in | rain mn in | humidity % | barometer mb |
| 20260504043054 | 44 | 279 | 0.0 | 0.0 | 0.00 | 0.00 | 0.00 | 80 | 1011.8 |
| 20260504041550 | 43 | 279 | 0.0 | 0.0 | 0.00 | 0.00 | 0.00 | 78 | 1011.8 |
| 20260504040047 | 43 | 279 | 0.0 | 1.0 | 0.00 | 0.00 | 0.00 | 75 | 1011.7 |
| 20260504034553 | 43 | 279 | 0.0 | 0.0 | 0.00 | 0.00 | 0.00 | 72 | 1011.7 |
| 20260504033053 | 43 | 279 | 0.0 | 0.0 | 0.00 | 0.00 | 0.00 | 72 | 1011.6 |
| 20260504031544 | 43 | 279 | 0.0 | 0.0 | 0.00 | 0.00 | 0.00 | 73 | 1011.5 |
| 20260504030042 | 43 | 279 | 0.0 | 1.0 | 0.00 | 0.00 | 0.00 | 75 | 1011.6 |
| 20260504024545 | 44 | 279 | 0.0 | 1.0 | 0.00 | 0.00 | 0.00 | 75 | 1011.5 |
| 20260504023040 | 44 | 279 | 0.0 | 0.0 | 0.00 | 0.00 | 0.00 | 74 | 1011.5 |
| 20260504021541 | 44 | 279 | 0.0 | 0.0 | 0.00 | 0.00 | 0.00 | 73 | 1011.5 |
| 20260504020041 | 45 | 279 | 0.0 | 0.0 | 0.00 | 0.00 | 0.00 | 71 | 1011.5 |
| 20260504014539 | 45 | 279 | 0.0 | 0.0 | 0.00 | 0.00 | 0.00 | 70 | 1011.3 |
| 20260504013039 | 46 | 279 | 0.0 | 0.0 | 0.00 | 0.00 | 0.00 | 68 | 1011.2 |
| 20260504011534 | 47 | 279 | 0.0 | 0.0 | 0.00 | 0.00 | 0.00 | 66 | 1011.2 |
| 20260504010046 | 48 | 279 | 0.0 | 0.0 | 0.00 | 0.00 | 0.00 | 64 | 1010.9 |
| 20260504004531 | 49 | 279 | 0.0 | 0.0 | 0.00 | 0.00 | 0.00 | 60 | 1010.7 |
| 20260504003029 | 50 | 279 | 0.0 | 0.0 | 0.00 | 0.00 | 0.00 | 58 | 1010.6 |
| 20260504001528 | 51 | 279 | 0.0 | 0.0 | 0.00 | 0.00 | 0.00 | 54 | 1010.4 |
| 20260504000027 | 53 | 279 | 0.0 | 0.0 | 0.00 | 0.00 | 0.00 | 52 | 1010.2 |
| 20260503234526 | 54 | 279 | 0.0 | 0.0 | 0.00 | 0.00 | 0.00 | 51 | 1009.9 |
| 20260503233023 | 55 | 279 | 0.0 | 0.0 | 0.00 | 0.00 | 0.00 | 46 | 1009.8 |
| 20260503231525 | 55 | 279 | 0.0 | 3.0 | 0.00 | 0.00 | 0.00 | 43 | 1009.8 |
| 20260503230022 | 56 | 279 | 0.0 | 3.0 | 0.00 | 0.00 | 0.00 | 41 | 1009.7 |
| 20260503224522 | 56 | 263 | 1.0 | 9.0 | 0.00 | 0.00 | 0.00 | 41 | 1009.7 |
| 20260503223021 | 56 | 271 | 2.0 | 7.0 | 0.00 | 0.00 | 0.00 | 39 | 1009.5 |
| 20260503221529 | 56 | 338 | 1.0 | 9.0 | 0.00 | 0.00 | 0.00 | 41 | 1009.4 |
| 20260503220020 | 56 | 355 | 3.0 | 10.0 | 0.00 | 0.00 | 0.00 | 39 | 1009.2 |
| 20260503214519 | 56 | 315 | 3.0 | 9.0 | 0.00 | 0.00 | 0.00 | 39 | 1009.3 |
| 20260503213028 | 56 | 261 | 2.0 | 11.0 | 0.00 | 0.00 | 0.00 | 40 | 1009.0 |
| 20260503211520 | 56 | 319 | 5.0 | 14.0 | 0.00 | 0.00 | 0.00 | 38 | 1008.9 |
| 20260503210018 | 56 | 236 | 4.0 | 18.0 | 0.00 | 0.00 | 0.00 | 39 | 1008.9 |
| 20260503204524 | 57 | 224 | 5.0 | 13.0 | 0.00 | 0.00 | 0.00 | 36 | 1008.9 |
| 20260503203017 | 57 | 289 | 4.0 | 12.0 | 0.00 | 0.00 | 0.00 | 38 | 1008.7 |
| 20260503201526 | 56 | 290 | 4.0 | 14.0 | 0.00 | 0.00 | 0.00 | 38 | 1008.7 |
| 20260503200016 | 56 | 309 | 4.0 | 18.0 | 0.00 | 0.00 | 0.00 | 38 | 1008.6 |
| 20260503194520 | 56 | 227 | 7.0 | 17.0 | 0.00 | 0.00 | 0.00 | 36 | 1008.8 |
| 20260503193014 | 57 | 299 | 8.0 | 25.0 | 0.00 | 0.00 | 0.00 | 37 | 1008.7 |
| 20260503191515 | 57 | 301 | 3.0 | 11.0 | 0.00 | 0.00 | 0.00 | 39 | 1008.5 |
| 20260503190019 | 57 | 336 | 1.0 | 15.0 | 0.00 | 0.00 | 0.00 | 42 | 1008.7 |
| 20260503184512 | 56 | 254 | 6.0 | 15.0 | 0.00 | 0.00 | 0.00 | 41 | 1008.8 |
| 20260503183013 | 56 | 337 | 4.0 | 13.0 | 0.00 | 0.00 | 0.00 | 42 | 1008.9 |
| 20260503181517 | 55 | 253 | 4.0 | 15.0 | 0.00 | 0.00 | 0.00 | 43 | 1009.1 |
| 20260503180006 | 56 | 304 | 5.0 | 17.0 | 0.00 | 0.00 | 0.00 | 41 | 1009.0 |
| 20260503174504 | 54 | 259 | 7.0 | 16.0 | 0.00 | 0.00 | 0.00 | 45 | 1008.9 |
| 20260503173011 | 53 | 360 | 4.0 | 14.0 | 0.00 | 0.00 | 0.00 | 50 | 1008.9 |
| 20260503171502 | 54 | 261 | 4.0 | 18.0 | 0.00 | 0.00 | 0.00 | 50 | 1008.9 |
| 20260503170105 | 54 | 300 | 3.0 | 18.0 | 0.00 | 0.00 | 0.00 | 46 | 1008.8 |
| 20260503081510 | 46 | 348 | 3.0 | 12.0 | 0.00 | 0.00 | 0.00 | 59 | 1007.9 |
| 20260503071601 | 48 | 40 | 3.0 | 14.0 | 0.00 | 0.00 | 0.00 | 59 | 1008.2 |
| 20260503060109 | 49 | 18 | 4.0 | 11.0 | 0.00 | 0.00 | 0.00 | 60 | 1008.6 |
| 20260503054544 | 49 | 48 | 7.0 | 17.0 | 0.00 | 0.00 | 0.00 | 59 | 1008.7 |
| 20260503053042 | 49 | 30 | 2.0 | 8.0 | 0.00 | 0.00 | 0.00 | 61 | 1008.9 |
| 20260503051536 | 49 | 325 | 3.0 | 10.0 | 0.00 | 0.00 | 0.00 | 62 | 1009.4 |
| 20260503050036 | 49 | 26 | 2.0 | 11.0 | 0.00 | 0.00 | 0.00 | 64 | 1009.4 |
| 20260503044604 | 49 | 17 | 4.0 | 12.0 | 0.00 | 0.00 | 0.00 | 68 | 1009.1 |